Location: ??????
(56.0120°N, 39.1740°E)
Time: 08:37:00
(UTC+00:00)

CZ-4B R/B - Pass Details

Date: 14 April 2026
Orbit: 808 x 880 km, 98.9° (Epoch: 9 May)

Event Time Altitude Azimuth Distance (km) Brightness Sun altitude
Exits shadow 17:10:57 - 155° (SSE) 3,420 5.9 -6.4°
Reaches altitude 10° 17:13:18 10° 154° (SSE) 2,497 5.2 -6.6°
Maximum altitude 17:18:51 78° 69° (ENE) 898 3.3 -7.3°
Drops below altitude 10° 17:24:31 10° 345° (NNW) 2,546 6.4 -8.0°
Sets 17:26:56 0° 344° (NNW) 3,492 7.2 -8.3°
